N4XHQ-13 Weather Reports


time (UTC)temp
C
wind
direction
speed
KPH
gust
KPH
rain 1hr
cm
rain 24hr
cm
rain mn
cm
humidity
%
barometer
mb
20260906101155 26 13 1.6 3.2 0.00 0.00 0.00 71 1012.9
20260906100651 26 78 1.6 1.6 0.00 0.00 0.00 71 1012.8
20260906100151 26 10 1.6 1.6 0.00 0.00 0.00 73 1012.8
20260906095646 26 5 0.0 0.0 0.00 0.00 0.00 74 1012.4
20260906095141 26 5 0.0 0.0 0.00 0.00 0.00 74 1012.2
20260906094639 26 5 1.6 1.6 0.00 0.00 0.00 74 1012.2
20260906094136 26 5 0.0 0.0 0.00 0.00 0.00 74 1012.1
20260906093632 26 5 1.6 1.6 0.00 0.00 0.00 75 1012.1
20260906093131 26 5 0.0 0.0 0.00 0.00 0.00 76 1012.2
20260906092627 26 5 3.2 3.2 0.00 0.00 0.00 78 1012.1
20260906092122 26 5 1.6 1.6 0.00 0.00 0.00 81 1011.9
20260906091618 26 1 1.6 1.6 0.00 0.00 0.00 84 1012.0
20260906091114 26 1 0.0 1.6 0.00 0.00 0.00 84 1012.1
20260906090615 26 1 0.0 1.6 0.00 0.00 0.00 85 1011.7
20260906090115 26 1 0.0 1.6 0.00 0.00 0.00 85 1012.2
20260906085614 26 1 0.0 1.6 0.00 0.00 0.00 85 1012.0
20260906085108 26 1 1.6 1.6 0.00 0.00 0.00 84 1012.1
20260906084603 26 1 0.0 1.6 0.00 0.00 0.00 84 1012.0
20260906084101 26 1 0.0 1.6 0.00 0.00 0.00 84 1012.0
20260906083557 26 1 3.2 3.2 0.00 0.00 0.00 85 1012.1
20260906083057 26 1 1.6 1.6 0.00 0.00 0.00 85 1012.3
20260906082552 26 1 1.6 1.6 0.00 0.00 0.00 86 1012.4
20260906082048 26 1 0.0 1.6 0.00 0.00 0.00 87 1012.3
20260906081544 26 1 0.0 0.0 0.00 0.00 0.00 88 1012.5
20260906081039 26 1 0.0 0.0 0.00 0.00 0.00 88 1012.5
20260906080536 25 1 1.6 1.6 0.00 0.00 0.00 89 1012.7
20260906080032 25 1 0.0 1.6 0.00 0.00 0.00 89 1012.8
20260906075531 25 1 0.0 0.0 0.00 0.00 0.00 90 1012.6
20260906075026 25 1 0.0 0.0 0.00 0.00 0.00 89 1012.3
20260906074521 25 1 0.0 0.0 0.00 0.00 0.00 89 1012.2
20260906074019 25 1 0.0 0.0 0.00 0.00 0.00 89 1012.2
20260906073514 25 1 0.0 0.0 0.00 0.00 0.00 88 1012.0
20260906073011 25 1 0.0 0.0 0.00 0.00 0.00 88 1012.1
20260906072505 25 1 0.0 0.0 0.00 0.00 0.00 88 1012.1
20260906072001 25 1 0.0 0.0 0.00 0.00 0.00 88 1012.3
20260906071457 25 1 0.0 0.0 0.00 0.00 0.00 88 1012.4
20260906070952 25 1 0.0 0.0 0.00 0.00 0.00 88 1012.2
20260906070449 25 1 0.0 0.0 0.00 0.00 0.00 87 1012.2
20260906065944 25 1 0.0 0.0 0.00 0.00 0.00 87 1012.4
20260906065443 25 1 0.0 0.0 0.00 0.00 0.00 87 1012.2
20260906064939 25 1 0.0 0.0 0.00 0.00 0.00 87 1012.2
20260906064436 25 1 0.0 0.0 0.00 0.00 0.00 87 1012.4
20260906063936 25 1 0.0 0.0 0.00 0.00 0.00 87 1012.4
20260906063431 25 1 0.0 0.0 0.00 0.00 0.00 87 1012.6
20260906062926 25 1 0.0 0.0 0.00 0.00 0.00 87 1012.6
20260906062427 25 1 0.0 0.0 0.00 0.00 0.00 86 1012.7
20260906061922 25 1 0.0 0.0 0.00 0.00 0.00 86 1012.9
20260906061418 25 1 0.0 0.0 0.00 0.00 0.00 86 1012.8
20260906060912 25 1 0.0 0.0 0.00 0.00 0.00 85 1012.9
20260906060410 25 1 0.0 0.0 0.00 0.00 0.00 85 1013.0
20260906055906 25 1 0.0 0.0 0.00 0.00 0.00 85 1013.0
20260906055401 25 1 0.0 0.0 0.00 0.00 0.00 85 1013.0
20260906054855 26 1 0.0 0.0 0.00 0.00 0.00 84 1012.9
20260906054351 26 1 0.0 0.0 0.00 0.00 0.00 84 1013.0
20260906053847 26 1 0.0 0.0 0.00 0.00 0.00 84 1013.0
20260906053343 26 1 0.0 0.0 0.00 0.00 0.00 84 1013.0
20260906052838 26 1 0.0 0.0 0.00 0.00 0.00 83 1013.1
20260906052334 26 1 0.0 1.6 0.00 0.00 0.00 83 1012.9
20260906051831 26 1 0.0 0.0 0.00 0.00 0.00 83 1013.1
20260906051330 26 1 0.0 1.6 0.00 0.00 0.00 83 1012.9
20260906050826 26 347 0.0 0.0 0.00 0.00 0.00 83 1012.9
20260906050321 26 347 0.0 0.0 0.00 0.00 0.00 83 1013.1
20260906045820 26 347 0.0 0.0 0.00 0.00 0.00 83 1013.3
20260906045314 26 347 0.0 0.0 0.00 0.00 0.00 83 1012.8
20260906044811 26 347 0.0 0.0 0.00 0.00 0.00 82 1012.8
20260906044305 26 347 0.0 0.0 0.00 0.00 0.00 82 1012.7
20260906043801 26 347 0.0 0.0 0.00 0.00 0.00 82 1012.8
20260906043257 26 347 0.0 0.0 0.00 0.00 0.00 82 1012.8
20260906042756 26 347 0.0 0.0 0.00 0.00 0.00 81 1012.8
20260906042256 26 347 0.0 0.0 0.00 0.00 0.00 81 1013.0
20260906041752 26 347 0.0 0.0 0.00 0.00 0.00 81 1013.0
20260906041247 26 347 0.0 0.0 0.00 0.00 0.00 80 1012.9
20260906040742 26 347 0.0 0.0 0.00 0.00 0.00 80 1012.9
20260906040237 26 347 0.0 0.0 0.00 0.00 0.00 79 1012.9
20260906035733 26 347 0.0 0.0 0.00 0.00 0.00 79 1012.9
20260906035229 27 347 0.0 0.0 0.00 0.00 0.00 78 1012.7
20260906034728 27 347 0.0 0.0 0.00 0.00 0.00 78 1012.9
20260906034223 27 347 0.0 0.0 0.00 0.00 0.00 77 1012.8
20260906033719 27 347 0.0 0.0 0.00 0.00 0.00 76 1013.0
20260906033218 27 346 0.0 1.6 0.00 0.00 0.00 76 1013.0
20260906032716 27 341 0.0 0.0 0.00 0.00 0.00 76 1012.9
20260906032215 27 339 0.0 0.0 0.00 0.00 0.00 76 1012.9
20260906031710 27 128 0.0 0.0 0.00 0.00 0.00 75 1013.0
20260906031205 27 130 0.0 1.6 0.00 0.00 0.00 76 1013.0
20260906030705 27 139 0.0 1.6 0.00 0.00 0.00 76 1012.8
20260906030200 27 139 1.6 1.6 0.00 0.00 0.00 76 1012.5
20260906025700 27 153 3.2 4.8 0.00 0.00 0.00 76 1012.9
20260906025200 27 155 0.0 1.6 0.00 0.00 0.00 76 1012.8
20260906024654 27 155 0.0 1.6 0.00 0.00 0.00 76 1012.8
20260906024153 27 156 1.6 3.2 0.00 0.00 0.00 76 1013.0
20260906023650 27 153 0.0 1.6 0.00 0.00 0.00 76 1013.0
20260906023149 27 156 0.0 1.6 0.00 0.00 0.00 76 1013.0
20260906022644 28 156 0.0 0.0 0.00 0.00 0.00 75 1012.7
20260906022140 28 156 1.6 1.6 0.00 0.00 0.00 75 1012.8
20260906021636 28 156 0.0 0.0 0.00 0.00 0.00 75 1012.6
20260906021134 28 156 1.6 1.6 0.00 0.00 0.00 75 1012.8
20260906020629 28 156 0.0 0.0 0.00 0.00 0.00 74 1012.8
20260906020124 28 156 0.0 1.6 0.00 0.00 0.00 74 1012.5
20260906015618 28 156 0.0 0.0 0.00 0.00 0.00 74 1012.6
20260906015117 28 156 1.6 1.6 0.00 0.00 0.00 74 1012.3
20260906014612 28 157 3.2 3.2 0.00 0.00 0.00 74 1012.3
20260906014108 28 157 0.0 0.0 0.00 0.00 0.00 73 1012.2
20260906013603 28 157 1.6 1.6 0.00 0.00 0.00 73 1012.1
20260906013058 28 159 0.0 0.0 0.00 0.00 0.00 72 1012.0
20260906012553 28 159 1.6 3.2 0.00 0.00 0.00 72 1011.9
20260906012053 28 284 1.6 3.2 0.00 0.00 0.00 72 1011.8
20260906011549 28 311 1.6 4.8 0.00 0.00 0.00 72 1011.6
20260906011048 29 321 1.6 4.8 0.00 0.00 0.00 72 1011.5
20260906010544 29 50 1.6 1.6 0.00 0.00 0.00 71 1011.7
20260906010041 29 95 0.0 1.6 0.00 0.00 0.00 71 1011.6
20260906005540 29 103 1.6 3.2 0.00 0.00 0.00 71 1011.5
20260906005039 29 344 0.0 4.8 0.00 0.00 0.00 71 1011.2
20260906004538 29 18 1.6 1.6 0.00 0.00 0.00 71 1011.5
20260906004033 29 65 0.0 1.6 0.00 0.00 0.00 71 1011.6
20260906003528 30 349 0.0 3.2 0.00 0.00 0.00 71 1011.6
20260906003024 30 345 0.0 3.2 0.00 0.00 0.00 70 1011.2
20260906002519 30 29 0.0 0.0 0.00 0.00 0.00 70 1011.5
20260906002014 30 66 1.6 3.2 0.00 0.00 0.00 69 1011.6
20260906001510 30 30 0.0 0.0 0.00 0.00 0.00 69 1011.6
20260906001004 30 32 1.6 1.6 0.00 0.00 0.00 68 1011.6
20260906000500 30 357 0.0 1.6 0.00 0.00 0.00 68 1011.6
20260906000000 30 343 1.6 3.2 0.00 0.00 0.00 67 1011.6
20260905235500 31 48 1.6 1.6 0.00 0.00 0.00 66 1011.7
20260905234955 31 350 0.0 3.2 0.00 0.00 0.00 65 1011.6
20260905234451 31 7 1.6 1.6 0.00 0.00 0.00 64 1011.7
20260905233950 31 239 1.6 4.8 0.00 0.00 0.00 64 1011.5
20260905233446 31 250 1.6 3.2 0.00 0.00 0.00 64 1011.5
20260905232944 31 321 3.2 4.8 0.00 0.00 0.00 65 1011.6
20260905232441 31 334 3.2 6.4 0.00 0.00 0.00 64 1011.4
20260905231936 31 32 0.0 3.2 0.00 0.00 0.00 65 1011.6
20260905231432 31 329 3.2 6.4 0.00 0.00 0.00 64 1011.6
20260905230928 32 48 3.2 3.2 0.00 0.00 0.00 64 1011.5
20260905230427 32 350 1.6 3.2 0.00 0.00 0.00 63 1011.4
20260905225925 31 135 6.4 6.4 0.00 0.00 0.00 64 1011.2
20260905225420 31 333 4.8 6.4 0.00 0.00 0.00 64 1011.2
20260905224915 31 318 4.8 4.8 0.00 0.00 0.00 65 1011.4
20260905224412 31 325 1.6 6.4 0.00 0.00 0.00 65 1011.5
20260905223910 31 302 6.4 9.7 0.00 0.00 0.00 64 1011.7
20260905223409 32 165 3.2 11.3 0.00 0.00 0.00 64 1011.6
20260905222909 32 328 3.2 11.3 0.00 0.00 0.00 61 1011.6
20260905222408 33 311 3.2 11.3 0.00 0.00 0.00 59 1011.2
20260905221904 33 15 3.2 3.2 0.00 0.00 0.00 57 1011.0
20260905221401 33 323 3.2 3.2 0.00 0.00 0.00 56 1011.1
20260905220856 33 22 0.0 1.6 0.00 0.00 0.00 55 1011.2
20260905220352 33 67 0.0 1.6 0.00 0.00 0.00 55 1011.0
20260905215851 33 348 0.0 4.8 0.00 0.00 0.00 55 1010.9
20260905215347 34 131 3.2 3.2 0.00 0.00 0.00 55 1010.9
20260905214843 34 333 1.6 3.2 0.00 0.00 0.00 54 1010.9
20260905214338 35 11 1.6 1.6 0.00 0.00 0.00 52 1010.7
20260905213833 35 319 4.8 6.4 0.00 0.00 0.00 50 1010.6
20260905213330 36 208 1.6 3.2 0.00 0.00 0.00 48 1010.9
20260905212830 37 326 3.2 4.8 0.00 0.00 0.00 44 1010.7
20260905212330 37 356 0.0 1.6 0.00 0.00 0.00 42 1010.6
20260905211824 37 153 1.6 1.6 0.00 0.00 0.00 41 1010.9
20260905211320 37 213 1.6 1.6 0.00 0.00 0.00 42 1010.8
20260905210817 38 342 1.6 3.2 0.00 0.00 0.00 40 1010.7
20260905210316 38 17 1.6 3.2 0.00 0.00 0.00 40 1010.9
20260905205815 38 145 3.2 4.8 0.00 0.00 0.00 42 1011.0
20260905205309 38 186 0.0 1.6 0.00 0.00 0.00 41 1011.1
20260905204809 36 172 1.6 3.2 0.00 0.00 0.00 43 1011.5
20260905204305 36 39 0.0 1.6 0.00 0.00 0.00 45 1011.6
20260905203804 36 40 0.0 3.2 0.00 0.00 0.00 44 1011.2
20260905203300 36 334 0.0 1.6 0.00 0.00 0.00 44 1011.4
20260905202755 36 357 0.0 1.6 0.00 0.00 0.00 43 1011.1
20260905202250 37 18 1.6 1.6 0.00 0.00 0.00 43 1011.6
20260905201745 38 29 3.2 6.4 0.00 0.00 0.00 41 1011.5
20260905201240 37 343 0.0 1.6 0.00 0.00 0.00 43 1011.5
20260905200736 38 5 1.6 3.2 0.00 0.00 0.00 41 1011.6
20260905200231 38 87 4.8 6.4 0.00 0.00 0.00 42 1011.5
20260905195729 38 319 0.0 3.2 0.00 0.00 0.00 42 1011.4
20260905195224 40 63 1.6 9.7 0.00 0.00 0.00 36 1011.6
20260905194720 38 352 1.6 3.2 0.00 0.00 0.00 33 1011.7
20260905194220 39 299 1.6 3.2 0.00 0.00 0.00 32 1011.8
20260905193719 38 328 1.6 1.6 0.00 0.00 0.00 33 1011.8
20260905193214 38 297 1.6 3.2 0.00 0.00 0.00 33 1011.8
20260905192710 37 348 1.6 3.2 0.00 0.00 0.00 37 1011.9
20260905192206 37 347 3.2 3.2 0.00 0.00 0.00 36 1011.9
20260905191705 37 29 3.2 3.2 0.00 0.00 0.00 39 1012.1
20260905191203 36 327 3.2 3.2 0.00 0.00 0.00 42 1012.1
20260905190702 36 316 1.6 1.6 0.00 0.00 0.00 43 1012.2
20260905190201 37 1 0.0 1.6 0.00 0.00 0.00 42 1012.3
20260905185700 38 345 3.2 4.8 0.00 0.00 0.00 36 1012.3
20260905185155 38 345 3.2 3.2 0.00 0.00 0.00 37 1012.5
20260905184654 38 304 1.6 3.2 0.00 0.00 0.00 37 1012.6
20260905184153 38 7 3.2 3.2 0.00 0.00 0.00 38 1012.5
20260905183648 38 32 3.2 4.8 0.00 0.00 0.00 38 1012.6
20260905183143 38 318 3.2 3.2 0.00 0.00 0.00 37 1012.8
20260905182642 37 359 0.0 3.2 0.00 0.00 0.00 38 1012.6
20260905182143 38 5 4.8 4.8 0.00 0.00 0.00 35 1013.0
20260905181638 38 34 1.6 3.2 0.00 0.00 0.00 35 1012.9
20260905181137 39 353 4.8 4.8 0.00 0.00 0.00 34 1013.1
20260905180632 38 20 1.6 1.6 0.00 0.00 0.00 35 1012.9
20260905180127 38 23 0.0 1.6 0.00 0.00 0.00 37 1013.3
20260905175626 38 31 1.6 3.2 0.00 0.00 0.00 38 1013.3
20260905175122 38 25 1.6 3.2 0.00 0.00 0.00 37 1013.4
20260905174617 38 149 3.2 4.8 0.00 0.00 0.00 37 1013.5
20260905174112 38 354 1.6 1.6 0.00 0.00 0.00 37 1013.4
20260905173609 38 24 1.6 3.2 0.00 0.00 0.00 36 1013.5
20260905173104 37 5 3.2 6.4 0.00 0.00 0.00 38 1013.5
20260905172603 37 346 1.6 3.2 0.00 0.00 0.00 40 1013.7
20260905172058 37 12 1.6 3.2 0.00 0.00 0.00 39 1013.7
20260905171554 37 342 0.0 1.6 0.00 0.00 0.00 40 1013.8
20260905171050 37 4 3.2 3.2 0.00 0.00 0.00 40 1013.9
20260905170547 37 355 0.0 4.8 0.00 0.00 0.00 41 1013.7
20260905170041 37 358 3.2 3.2 0.00 0.00 0.00 40 1013.9
20260905165536 37 357 4.8 4.8 0.00 0.00 0.00 39 1014.1
20260905165032 36 16 1.6 1.6 0.00 0.00 0.00 42 1014.0
20260905164532 35 352 1.6 3.2 0.00 0.00 0.00 43 1014.2
20260905164027 36 20 3.2 3.2 0.00 0.00 0.00 42 1014.1
20260905163522 36 5 3.2 3.2 0.00 0.00 0.00 42 1014.3
20260905163018 36 22 0.0 1.6 0.00 0.00 0.00 44 1014.4
20260905162514 36 25 0.0 3.2 0.00 0.00 0.00 43 1014.3
20260905162009 36 19 0.0 1.6 0.00 0.00 0.00 44 1014.3
20260905161509 35 20 3.2 3.2 0.00 0.00 0.00 45 1014.5
20260905161007 36 355 4.8 4.8 0.00 0.00 0.00 44 1014.4
20260905160506 35 35 0.0 3.2 0.00 0.00 0.00 45 1014.5
20260905160006 35 23 1.6 1.6 0.00 0.00 0.00 47 1014.5
20260905155506 35 353 3.2 4.8 0.00 0.00 0.00 45 1014.6
20260905155004 35 0 0.0 1.6 0.00 0.00 0.00 48 1014.4
20260905154500 35 0 1.6 3.2 0.00 0.00 0.00 48 1014.3
20260905153955 35 2 1.6 1.6 0.00 0.00 0.00 48 1014.4
20260905153451 35 1 3.2 4.8 0.00 0.00 0.00 48 1014.5
20260905152951 34 14 1.6 1.6 0.00 0.00 0.00 49 1014.4
20260905152450 33 354 3.2 3.2 0.00 0.00 0.00 50 1014.3
20260905151946 34 7 3.2 3.2 0.00 0.00 0.00 49 1014.6
20260905151441 35 11 3.2 3.2 0.00 0.00 0.00 47 1014.5
20260905150936 35 11 1.6 1.6 0.00 0.00 0.00 48 1014.5
20260905150436 35 11 0.0 1.6 0.00 0.00 0.00 49 1014.5
20260905145932 34 12 0.0 1.6 0.00 0.00 0.00 51 1014.6
20260905145427 33 12 0.0 1.6 0.00 0.00 0.00 53 1014.4
20260905144927 33 13 1.6 1.6 0.00 0.00 0.00 54 1014.5
20260905144423 33 13 0.0 1.6 0.00 0.00 0.00 55 1014.4
20260905143921 32 13 1.6 1.6 0.00 0.00 0.00 56 1014.3
20260905143421 32 13 1.6 1.6 0.00 0.00 0.00 57 1014.6
20260905142921 32 18 1.6 3.2 0.00 0.00 0.00 58 1014.7
20260905142419 32 20 3.2 3.2 0.00 0.00 0.00 57 1014.9
20260905141916 32 19 0.0 1.6 0.00 0.00 0.00 59 1014.5
20260905141411 31 19 0.0 1.6 0.00 0.00 0.00 62 1014.8
20260905140906 31 23 0.0 0.0 0.00 0.00 0.00 63 1014.7
20260905140401 32 27 1.6 3.2 0.00 0.00 0.00 60 1014.6
20260905135900 31 32 0.0 0.0 0.00 0.00 0.00 62 1014.7
20260905135356 31 20 1.6 1.6 0.00 0.00 0.00 61 1014.9
20260905134851 32 33 0.0 0.0 0.00 0.00 0.00 60 1014.9
20260905134350 31 33 0.0 0.0 0.00 0.00 0.00 62 1014.6
20260905133844 31 33 0.0 0.0 0.00 0.00 0.00 64 1014.7
20260905132839 30 35 0.0 0.0 0.00 0.00 0.00 66 1014.5
20260905132335 29 35 0.0 0.0 0.00 0.00 0.00 70 1014.6
20260905131834 28 35 0.0 0.0 0.00 0.00 0.00 74 1014.7
20260905131330 27 35 0.0 0.0 0.00 0.00 0.00 77 1014.7
20260905130825 26 35 0.0 0.0 0.00 0.00 0.00 83 1015.0
20260905130324 25 34 0.0 0.0 0.00 0.00 0.00 86 1014.9
20260905125819 25 34 0.0 0.0 0.00 0.00 0.00 87 1014.8
20260905125314 25 34 0.0 1.6 0.00 0.00 0.00 89 1014.9
20260905124810 24 34 0.0 0.0 0.00 0.00 0.00 90 1014.9
20260905124307 23 34 0.0 0.0 0.00 0.00 0.00 91 1014.9
20260905123801 23 34 0.0 0.0 0.00 0.00 0.00 92 1014.9
20260905123259 23 34 0.0 0.0 0.00 0.00 0.00 92 1015.0
20260905122758 23 34 0.0 1.6 0.00 0.00 0.00 92 1014.8
20260905122257 23 34 0.0 0.0 0.00 0.00 0.00 92 1014.6
20260905121753 23 34 0.0 0.0 0.00 0.00 0.00 93 1014.9
20260905121249 22 34 0.0 0.0 0.00 0.00 0.00 93 1014.7
20260905120747 22 34 0.0 0.0 0.00 0.00 0.00 93 1014.9
20260905120242 22 34 0.0 0.0 0.00 0.00 0.00 93 1014.6
20260905115737 22 34 0.0 0.0 0.00 0.00 0.00 93 1014.7
20260905115237 22 34 0.0 0.0 0.00 0.00 0.00 93 1014.7
20260905114731 22 34 0.0 0.0 0.00 0.00 0.00 94 1014.5
20260905114230 22 34 0.0 0.0 0.00 0.00 0.00 94 1014.4
20260905113729 22 34 0.0 0.0 0.00 0.00 0.00 94 1014.5
20260905113225 22 34 0.0 0.0 0.00 0.00 0.00 94 1014.4
20260905112725 22 34 0.0 0.0 0.00 0.00 0.00 94 1014.3
20260905112220 22 34 0.0 0.0 0.00 0.00 0.00 94 1014.3
20260905111721 22 34 0.0 0.0 0.00 0.00 0.00 93 1014.5
20260905111215 22 34 0.0 0.0 0.00 0.00 0.00 93 1014.3
20260905110714 22 34 0.0 0.0 0.00 0.00 0.00 93 1014.2
20260905110209 22 34 0.0 0.0 0.00 0.00 0.00 93 1014.2
20260905105705 22 34 0.0 0.0 0.00 0.00 0.00 93 1014.3
20260905105203 22 34 0.0 0.0 0.00 0.00 0.00 93 1014.2
20260905104658 22 34 0.0 0.0 0.00 0.00 0.00 93 1014.3
20260905104154 22 34 0.0 0.0 0.00 0.00 0.00 93 1014.4
20260905103649 22 34 0.0 0.0 0.00 0.00 0.00 93 1014.2
20260905103145 22 34 0.0 0.0 0.00 0.00 0.00 92 1014.4
20260905102641 22 34 0.0 0.0 0.00 0.00 0.00 92 1014.3
20260905102137 22 34 0.0 0.0 0.00 0.00 0.00 92 1014.2
20260905101635 22 34 0.0 0.0 0.00 0.00 0.00 92 1014.2